* Astronomy

Members Login
Username 
 
Password 
    Remember Me  
Post Info TOPIC: Asteroid 2014 WE6


L

Posts: 131433
Date:
RE: Asteroid 2014 WE6
Permalink  
 


The 2 - 5 metre wide asteroid 2014 WE6 will make a close pass (67.4 LD, 0.1731 AU) travelling at 5.17 km/second, to the Earth-Moon system on the 13th August 2015 @ 09:51 UT ±01:39. 

See more

The Lunar Distance (LD), the distance between Earth and the Moon, equals 384,401 km, (or 0.00256 AU).



__________________


L

Posts: 131433
Date:
Permalink  
 

Orbital elements:
2014 WE6                                                 Earth MOID = 0.0001 AU
Epoch 2014 Dec. 9.0 TT = JDT 2457000.5                  MPC
M 117.52915              (2000.0)            P               Q
n   1.03312156     Peri.  251.82787     +0.56407239     +0.82571195
a   0.9690996      Node    52.51095     -0.75533086     +0.51827668
e   0.1364415      Incl.    0.33954     -0.33361298     +0.22268601
P   0.95           H   30.2           G   0.15           U   7

MPEC 2014 - W22



__________________
Page 1 of 1  sorted by
 
Quick Reply

Please log in to post quick replies.



Create your own FREE Forum
Report Abuse
Powered by ActiveBoard